Location: Bastelaar
(51.0950°N, 3.8602°E)
Time: 16:43:30
(UTC+00:00)

BREEZE-M DEB (TANK) - Pass Details

Date: 18 November 2025
Orbit: 274 x 13340 km, 49.5° (Epoch: 10 December)

Event Time Altitude Azimuth Distance (km) Brightness Sun altitude
Rises 18:59:27 0° 257° (WSW) 2,427 7.2 -29.0°
Reaches altitude 10° 19:00:47 10° 255° (WSW) 1,820 6.3 -29.2°
Enters shadow 19:04:02 72° 210° (SSW) 948 3.9 -29.7°
